• In Uzbekistan
  • List of Countries
  • For 7 days
  • Water Temperature
  • Satellite Maps
  • Weather Map
  • Weather Widgets
  • user-avatar
    Login

    Hourly Weather Lodyna

    Today, 24 September, Monday

    Time Temperature Precipitation Wind Pressure Humidity
    00:00 +12°C° 0.1 mm 9 mps 714 mmHg 61%
    01:00 +12°C° 0.1 mm 10 mps 714 mmHg 65%
    02:00 +13°C° 0 mm 5 mps 712 mmHg 74%
    03:00 +11°C° 1.3 mm 6 mps 713 mmHg 79%
    04:00 +11°C° 1.3 mm 6 mps 713 mmHg 84%
    05:00 +10°C° 1.3 mm 7 mps 713 mmHg 89%
    06:00 +9°C° 0.6 mm 7 mps 714 mmHg 89%
    07:00 +8°C° 0.6 mm 7 mps 715 mmHg 88%
    08:00 +8°C° 0.6 mm 7 mps 717 mmHg 88%
    09:00 +6°C° 0.1 mm 7 mps 718 mmHg 86%
    10:00 +6°C° 0.1 mm 7 mps 719 mmHg 84%
    11:00 +7°C° 0.1 mm 6 mps 720 mmHg 83%
    12:00 +6°C° 0.1 mm 7 mps 721 mmHg 78%
    13:00 +8°C° 0.1 mm 7 mps 721 mmHg 74%
    14:00 +8°C° 0.1 mm 7 mps 722 mmHg 70%
    15:00 +8°C° 0.1 mm 7 mps 722 mmHg 68%
    16:00 +8°C° 0.1 mm 7 mps 722 mmHg 66%
    17:00 +8°C° 0.1 mm 6 mps 723 mmHg 64%
    18:00 +7°C° 0 mm 5 mps 723 mmHg 67%
    19:00 +6°C° 0 mm 5 mps 723 mmHg 71%
    20:00 +5°C° 0 mm 4 mps 724 mmHg 74%
    21:00 +4°C° 0 mm 4 mps 724 mmHg 75%
    22:00 +4°C° 0 mm 4 mps 724 mmHg 76%
    23:00 +3°C° 0 mm 5 mps 725 mmHg 78%

    Tomorrow, 25 September, Tuesday

    Time Temperature Precipitation Wind Pressure Humidity
    00:00 +3°C° 0.2 mm 5 mps 725 mmHg 80%
    01:00 +3°C° 0.2 mm 5 mps 725 mmHg 83%
    02:00 +3°C° 0.2 mm 5 mps 726 mmHg 86%
    03:00 +3°C° 0.1 mm 4 mps 726 mmHg 87%
    04:00 +3°C° 0.1 mm 4 mps 726 mmHg 88%
    05:00 +3°C° 0.1 mm 4 mps 727 mmHg 90%
    06:00 +3°C° 0 mm 4 mps 727 mmHg 88%
    07:00 +3°C° 0 mm 4 mps 728 mmHg 86%
    08:00 +3°C° 0 mm 5 mps 729 mmHg 84%
    09:00 +5°C° 0.1 mm 5 mps 729 mmHg 77%
    10:00 +6°C° 0.1 mm 5 mps 730 mmHg 71%
    11:00 +7°C° 0.1 mm 6 mps 730 mmHg 64%
    12:00 +8°C° 0.1 mm 6 mps 730 mmHg 60%
    13:00 +9°C° 0.1 mm 6 mps 731 mmHg 55%
    14:00 +9°C° 0.1 mm 6 mps 731 mmHg 50%
    15:00 +9°C° 0.1 mm 6 mps 731 mmHg 53%
    16:00 +8°C° 0.1 mm 5 mps 731 mmHg 56%
    17:00 +8°C° 0.1 mm 5 mps 731 mmHg 59%
    18:00 +6°C° 0 mm 4 mps 732 mmHg 65%
    19:00 +5°C° 0 mm 3 mps 732 mmHg 72%
    20:00 +5°C° 0 mm 2 mps 733 mmHg 78%
    21:00 +4°C° 0 mm 2 mps 733 mmHg 79%
    22:00 +3°C° 0 mm 2 mps 734 mmHg 80%
    23:00 +3°C° 0 mm 2 mps 734 mmHg 80%

    Day after tomorrow, 26 September, Wednesday

    Time Temperature Precipitation Wind Pressure Humidity
    00:00 +2°C° 0 mm 2 mps 734 mmHg 82%
    01:00 +2°C° 0 mm 2 mps 735 mmHg 83%
    02:00 +1°C° 0 mm 2 mps 735 mmHg 85%
    03:00 +2°C° 0 mm 1 mps 735 mmHg 86%
    04:00 +2°C° 0 mm 1 mps 735 mmHg 87%
    05:00 +1°C° 0 mm 1 mps 735 mmHg 88%
    06:00 +2°C° 0 mm 1 mps 735 mmHg 84%
    07:00 +3°C° 0 mm 1 mps 736 mmHg 80%
    08:00 +4°C° 0 mm 1 mps 736 mmHg 77%
    09:00 +6°C° 0 mm 1 mps 736 mmHg 67%
    10:00 +8°C° 0 mm 1 mps 736 mmHg 58%
    11:00 +9°C° 0 mm 2 mps 736 mmHg 48%
    12:00 +10°C° 0 mm 2 mps 736 mmHg 45%
    13:00 +12°C° 0 mm 2 mps 735 mmHg 42%
    14:00 +13°C° 0 mm 2 mps 735 mmHg 39%
    15:00 +13°C° 0 mm 2 mps 734 mmHg 43%
    16:00 +12°C° 0 mm 1 mps 734 mmHg 47%
    17:00 +12°C° 0 mm 1 mps 733 mmHg 51%
    18:00 +9°C° 0 mm 2 mps 733 mmHg 53%
    19:00 +8°C° 0 mm 2 mps 733 mmHg 56%
    20:00 +6°C° 0 mm 2 mps 733 mmHg 59%
    21:00 +6°C° 0 mm 2 mps 733 mmHg 58%
    22:00 +5°C° 0 mm 3 mps 733 mmHg 57%
    23:00 +7°C° 0 mm 3 mps 733 mmHg 56%

    27 September, Thursday

    Time Temperature Precipitation Wind Pressure Humidity
    00:00 +7°C° 0 mm 3 mps 732 mmHg 57%
    01:00 +7°C° 0 mm 3 mps 732 mmHg 58%
    02:00 +7°C° 0 mm 3 mps 732 mmHg 59%
    03:00 +6°C° 0 mm 4 mps 732 mmHg 59%
    04:00 +5°C° 0 mm 4 mps 731 mmHg 59%
    05:00 +5°C° 0 mm 4 mps 731 mmHg 58%
    06:00 +5°C° 0 mm 4 mps 731 mmHg 57%
    07:00 +6°C° 0 mm 4 mps 731 mmHg 56%
    08:00 +6°C° 0 mm 4 mps 731 mmHg 55%
    09:00 +8°C° 0 mm 4 mps 731 mmHg 52%
    10:00 +10°C° 0 mm 4 mps 731 mmHg 49%
    11:00 +12°C° 0 mm 5 mps 731 mmHg 46%
    12:00 +13°C° 0 mm 5 mps 730 mmHg 46%
    13:00 +14°C° 0 mm 5 mps 730 mmHg 47%
    14:00 +15°C° 0 mm 5 mps 730 mmHg 47%
    15:00 +15°C° 0 mm 4 mps 729 mmHg 51%
    16:00 +15°C° 0 mm 4 mps 729 mmHg 54%
    17:00 +14°C° 0 mm 3 mps 729 mmHg 57%
    18:00 +13°C° 0 mm 3 mps 729 mmHg 59%
    19:00 +11°C° 0 mm 3 mps 729 mmHg 61%
    20:00 +10°C° 0 mm 3 mps 729 mmHg 63%
    21:00 +10°C° 0 mm 3 mps 729 mmHg 63%
    22:00 +9°C° 0 mm 3 mps 729 mmHg 62%
    23:00 +9°C° 0 mm 2 mps 729 mmHg 62%

    28 September, Friday

    Time Temperature Precipitation Wind Pressure Humidity
    00:00 +10°C° 0 mm 2 mps 729 mmHg 61%
    01:00 +10°C° 0 mm 2 mps 728 mmHg 60%
    02:00 +10°C° 0 mm 2 mps 728 mmHg 58%
    03:00 +10°C° 0 mm 2 mps 728 mmHg 61%
    04:00 +9°C° 0 mm 2 mps 727 mmHg 63%
    05:00 +8°C° 0 mm 2 mps 727 mmHg 66%
    06:00 +9°C° 0 mm 2 mps 726 mmHg 65%
    07:00 +10°C° 0 mm 2 mps 726 mmHg 64%
    08:00 +10°C° 0 mm 3 mps 726 mmHg 63%
    09:00 +12°C° 0 mm 3 mps 726 mmHg 59%
    10:00 +15°C° 0 mm 4 mps 726 mmHg 54%
    11:00 +18°C° 0 mm 4 mps 725 mmHg 49%
    12:00 +17°C° 0 mm 5 mps 725 mmHg 47%
    13:00 +19°C° 0 mm 5 mps 724 mmHg 46%
    14:00 +20°C° 0 mm 5 mps 724 mmHg 44%
    15:00 +19°C° 0 mm 5 mps 723 mmHg 47%
    16:00 +18°C° 0 mm 4 mps 723 mmHg 50%
    17:00 +17°C° 0 mm 4 mps 722 mmHg 53%
    18:00 +15°C° 0 mm 4 mps 722 mmHg 54%
    19:00 +14°C° 0 mm 3 mps 722 mmHg 55%
    20:00 +13°C° 0 mm 3 mps 722 mmHg 56%
    21:00 +13°C° 0 mm 3 mps 722 mmHg 57%
    22:00 +13°C° 0 mm 3 mps 721 mmHg 58%
    23:00 +13°C° 0 mm 3 mps 721 mmHg 59%

    29 September, Saturday

    Time Temperature Precipitation Wind Pressure Humidity
    00:00 +12°C° 0 mm 3 mps 721 mmHg 62%
    01:00 +13°C° 0 mm 2 mps 721 mmHg 66%
    02:00 +12°C° 0 mm 2 mps 721 mmHg 70%
    03:00 +12°C° 0 mm 2 mps 721 mmHg 75%
    04:00 +10°C° 0 mm 2 mps 721 mmHg 80%
    05:00 +10°C° 0 mm 2 mps 721 mmHg 84%
    06:00 +10°C° 0.7 mm 2 mps 722 mmHg 87%
    07:00 +9°C° 0.7 mm 3 mps 722 mmHg 90%
    08:00 +9°C° 0.7 mm 3 mps 722 mmHg 92%
    09:00 +8°C° 1.2 mm 4 mps 723 mmHg 91%
    10:00 +8°C° 1.2 mm 4 mps 723 mmHg 89%
    11:00 +8°C° 1.2 mm 4 mps 724 mmHg 87%
    12:00 +8°C° 0.3 mm 5 mps 724 mmHg 82%
    13:00 +9°C° 0.3 mm 5 mps 724 mmHg 77%
    14:00 +9°C° 0.3 mm 6 mps 725 mmHg 71%
    15:00 +9°C° 0.1 mm 5 mps 725 mmHg 70%
    16:00 +9°C° 0.1 mm 5 mps 725 mmHg 69%
    17:00 +9°C° 0.1 mm 5 mps 726 mmHg 68%
    18:00 +8°C° 0 mm 5 mps 726 mmHg 69%
    19:00 +7°C° 0 mm 4 mps 727 mmHg 70%
    20:00 +6°C° 0 mm 4 mps 727 mmHg 71%
    21:00 +5°C° 0 mm 4 mps 728 mmHg 72%
    22:00 +4°C° 0 mm 4 mps 728 mmHg 73%
    23:00 +4°C° 0 mm 4 mps 728 mmHg 73%
    Show more